Showing default

RADIO ROSTO, 23439

Orbit data source: Space-Track

RADIO ROSTO, 23439 is a payload satellite owned by NPO PM (CIS) in LEO that was launched on Mon, 26 Dec 1994 UTC via an ROKOT launch vehicle from the Tyuratam Missile And Space Complex (TTMTR). Payload-class satellites include a variety of spacecraft equipped with specific instruments for various scientific and technological missions. These include communications satellites like Starlink; space stations such as the ISS; scientific satellites like the Hubble; Earth observation satellites from companies like Planet Labs, Umbra, and HawkEye 360; GPS; miniature CubeSats for education and research; and military/defense satellites.

Loading next visibility...
Identifier
23439, 1994-085A
Orbit
LEO
Country
Flag of CISCIS
Related business
Manufacturer
NPO PM
Mission
Partially operational Civil Communications
Bus & Motor
STRELA-1M, Unknown motor
Mass
70 kg wet, 70 kg dry
Launch date (UTC)
1994-12-26 (31 years ago)
Launch vehicle
ROKOT
Launch site
Tyuratam Missile And Space Complex (TTMTR)
Object type
Payload
Rocket body
Debris
Shape & HBR
Sphere, Unknown HBR
Radar Cross Section
0.785 m², Medium (>0.1 m² and < 1m²)

Expand to show TLE details & history
Last TLE update: 7 hours ago

TLE from 7 hours ago
0 RADIO ROSTO
1 23439U 94085A   25261.28376400 -.00000057  00000-0 -42775-3 0  9995
2 23439  64.8204  22.9475 0147408  55.0012 306.4649 11.27581607265242
Epoch: 2025-09-18T06:48Z
TLE epoch observation values (Epoch: 2025-09-18T06:48:37.209Z)
Latitude
0.00005°
Longitude
-76.65509°
Altitude
1,951.59 km
Speed
6.949 km/s
True Right ascension
01h 31m 47s
True Declination
0° 00' 00"
Sunlit
Object was in full shadow at epoch
Visualization orbit readout
Latitude
Unknown
Longitude
Unknown
Altitude
Unknown
Speed
Unknown
Apparent Right ascension
Unknown
Apparent Declination
Unknown
Sunlit
N/A
Visualization observer readout
Local Sidereal Time
06:16:21
Azimuth
Unknown
Elevation
Unknown
Doppler factor
Unknown
Orbital elements
Apogee altitude
2,144.944 km
Perigee altitude
1,897.32 km
Semi-major axis
8,399.269 km
Eccentricity
0.01474
Inclination
64.8204°
RAAN
22.9475°
Arg. of periapsis
55.0012°
True anomaly
305.09153°
Mean anomaly
306.4649°
Eccentric anomaly
305.77971°
Mean motion
2.81956 °/min
Orbital period
127.68 mins
BSTAR
-0.00042775
Loading maneuver chart data...
Computing Atmospheric mass density...
Loading historical data...
Loading historical data...
Loading historical data...
Loading historical data...
Loading historical data...
Loading historical data...
Loading historical data...

Documentation

Showing up to 5 results
|